This demonstration page uses our WeatherBlox Daily Observations layout. Learn more.

Left ArrowRight Arrow

Hourly Observations for July 4, 2018

Temp ( °F °C ) Dew Point ( °F °C ) Humidity (%) Winds ( mph kmh ) Pressure ( in mb ) Visibility ( mi km ) Precip ( " mm )
12:59 am 00:59 Partly Cloudy 80 26.7 74 23.3 82 82 NE 5 7 30.20 1023 10 16 0.00 0.00
1:59 am 01:59 Partly Cloudy 79 26.1 74 23.3 85 85 E 6 9 30.19 1022 10 16 0.00 0.00
2:59 am 02:59 Partly Cloudy 77 25 73 22.8 88 88 NE 3 6 30.19 1023 10 16 0.00 0.00
3:59 am 03:59 Partly Cloudy 77 25 72 22.2 85 85 Calm 30.19 1023 10 16 0.00 0.00
4:59 am 04:59 Mostly Cloudy 76 24.4 73 22.8 91 91 Calm 30.21 1023 10 16 0.00 0.00
5:59 am 05:59 Mostly Cloudy 80 26.7 75 23.9 85 85 ENE 5 7 30.21 1023 10 16 0.00 0.00
6:59 am 06:59 Mostly Cloudy 81 27.2 74 23.3 79 79 ENE 5 7 30.22 1024 10 16 0.00 0.00
7:59 am 07:59 Mostly Cloudy 83 28.3 74 23.3 74 74 ENE 8 13 30.24 1024 10 16 0.00 0.00
8:59 am 08:59 Mostly Cloudy 84 28.9 74 23.3 72 72 ENE 8 13 30.24 1024 10 16 0.00 0.00
9:59 am 09:59 Mostly Cloudy 85 29.4 73 22.8 68 68 E 12 19 30.26 1025 10 16 0.00 0.00
10:59 am 10:59 Mostly Cloudy 85 29.4 74 23.3 70 70 ENE 12 19 30.27 1025 10 16 0.00 0.00
11:59 am 11:59 Mostly Cloudy 86 30 75 23.9 70 70 ENE 15 24 30.26 1025 10 16 0.00 0.00
12:59 pm 12:59 Mostly Cloudy 87 30.6 75 23.9 67 67 E 15 24 30.26 1025 10 16 0.00 0.00
1:59 pm 13:59 Mostly Cloudy 86 30 73 22.8 65 65 ENE 12 19 30.25 1025 10 16 0.00 0.00
2:59 pm 14:59 Mostly Cloudy 86 30 74 23.3 67 67 E 14 22 30.25 1024 10 16 0.00 0.00
3:59 pm 15:59 Partly Cloudy 86 30 73 22.8 65 65 E 16 26 30.24 1024 10 16 0.00 0.00
4:59 pm 16:59 Mostly Sunny 85 29.4 75 23.9 72 72 E 15 24 30.24 1024 10 16 0.00 0.00
5:59 pm 17:59 Mostly Cloudy 85 29.4 74 23.3 70 70 ENE 15 24 30.24 1024 10 16 0.00 0.00
6:59 pm 18:59 Mostly Cloudy 83 28.3 74 23.3 74 74 ENE 13 20 30.26 1025 10 16 0.00 0.00
7:59 pm 19:59 Mostly Cloudy 82 27.8 74 23.3 77 77 E 10 17 30.25 1024 10 16 0.00 0.00
8:59 pm 20:59 Mostly Cloudy 81 27.2 73 22.8 77 77 ESE 8 13 30.25 1025 10 16 0.00 0.00
9:59 pm 21:59 Partly Cloudy 80 26.7 73 22.8 79 79 ESE 5 7 30.28 1025 9 14 0.00 0.00
10:59 pm 22:59 Mostly Clear 79 26.1 74 23.3 85 85 SE 5 7 30.28 1025 10 16 0.00 0.00
11:59 pm 23:59 Partly Cloudy 79 26.1 74 23.3 85 85 ESE 5 7 30.27 1025 10 16 0.00 0.00

Powered by AerisWeather